N3PB Weather Reports


time (UTC)temp
F
wind
direction
speed
knots
gust
knots
rain 1hr
in
rain 24hr
in
rain mn
in
humidity
%
barometer
mb
20260508102136 37 255 0.0 0.0 0.00 0.02 0.00 86 1015.4
20260508101636 37 255 0.0 0.0 0.00 0.02 0.00 86 1015.2
20260508101142 37 255 0.0 0.0 0.00 0.02 0.00 86 1015.2
20260508100639 37 255 0.0 0.0 0.00 0.02 0.00 86 1015.2
20260508100136 37 221 0.0 0.0 0.00 0.02 0.00 86 1015.3
20260508095645 37 221 0.0 0.0 0.00 0.02 0.00 86 1015.2
20260508095136 37 221 0.0 0.0 0.00 0.02 0.00 86 1015.2
20260508094636 37 221 0.0 0.0 0.00 0.02 0.00 87 1015.1
20260508094139 37 221 0.0 0.0 0.00 0.02 0.00 87 1015.1
20260508093639 37 221 0.0 0.0 0.00 0.02 0.00 87 1015.0
20260508093136 37 221 0.0 0.0 0.00 0.02 0.00 86 1015.1
20260508092636 37 221 0.0 0.0 0.00 0.02 0.00 85 1015.1
20260508092139 37 221 0.0 0.0 0.00 0.02 0.00 85 1015.1
20260508091636 37 221 0.0 0.0 0.00 0.02 0.00 84 1015.2
20260508091136 38 221 0.0 0.0 0.00 0.02 0.00 84 1015.1
20260508090636 38 221 0.0 0.0 0.00 0.02 0.00 84 1014.9
20260508090136 38 221 0.0 0.0 0.00 0.02 0.00 84 1015.0
20260508085636 38 221 0.0 0.0 0.00 0.02 0.00 84 1015.0
20260508085142 38 221 0.0 0.0 0.00 0.02 0.00 84 1015.0
20260508084639 38 221 0.0 0.0 0.00 0.02 0.00 83 1015.0
20260508084136 38 221 0.0 0.0 0.00 0.02 0.00 83 1015.0
20260508083642 39 221 0.0 0.0 0.00 0.02 0.00 83 1015.1
20260508083136 39 221 0.0 0.0 0.00 0.02 0.00 82 1015.1
20260508082639 39 221 0.0 0.0 0.00 0.02 0.00 81 1015.0
20260508082142 39 221 0.0 0.0 0.00 0.02 0.00 82 1015.0
20260508081637 39 221 0.0 0.0 0.00 0.02 0.00 81 1015.0
20260508081139 39 221 0.0 0.0 0.00 0.02 0.00 81 1014.8
20260508080636 40 221 0.0 0.0 0.00 0.02 0.00 81 1015.0
20260508080139 40 221 0.0 0.0 0.00 0.02 0.00 80 1014.9
20260508075642 40 221 0.0 0.0 0.00 0.02 0.00 80 1014.8
20260508075136 40 221 0.0 0.0 0.00 0.02 0.00 81 1015.0
20260508074645 40 221 0.0 0.0 0.00 0.02 0.00 80 1015.0
20260508074139 41 221 0.0 0.0 0.00 0.02 0.00 79 1015.0
20260508073642 41 221 0.0 0.0 0.00 0.02 0.00 79 1014.9
20260508073136 41 221 0.0 0.0 0.00 0.02 0.00 78 1014.7
20260508072636 41 221 0.0 0.0 0.00 0.02 0.00 78 1014.6
20260508072136 41 221 0.0 0.0 0.00 0.02 0.00 78 1014.7
20260508071636 42 221 0.0 0.0 0.00 0.02 0.00 77 1014.7
20260508071136 42 221 0.0 0.0 0.00 0.02 0.00 77 1014.7
20260508070639 42 221 0.0 0.0 0.00 0.02 0.00 77 1014.7
20260508070140 43 221 0.0 0.0 0.00 0.02 0.00 76 1014.8
20260508065636 43 221 0.0 0.0 0.00 0.02 0.00 76 1014.8
20260508065139 44 221 0.0 0.0 0.00 0.02 0.00 75 1014.7
20260508064636 44 221 0.0 0.0 0.00 0.02 0.00 76 1014.7
20260508064136 44 221 0.0 0.0 0.00 0.02 0.00 75 1014.7
20260508063636 44 221 0.0 0.0 0.00 0.02 0.00 75 1014.8
20260508063136 45 221 0.0 0.0 0.00 0.02 0.00 75 1014.7
20260508062636 44 221 0.0 0.0 0.00 0.02 0.00 78 1014.7
20260508062145 44 221 0.0 0.0 0.00 0.02 0.00 73 1014.8
20260508061642 44 221 0.0 0.0 0.00 0.02 0.00 74 1014.8
20260508061142 44 221 0.0 0.0 0.00 0.02 0.00 74 1014.6
20260508060639 43 259 0.0 0.0 0.00 0.02 0.00 75 1014.7
20260508060136 43 258 0.0 0.0 0.00 0.02 0.00 77 1014.8
20260508055639 43 258 0.0 0.0 0.00 0.02 0.00 79 1014.8
20260508055139 43 257 0.0 0.0 0.00 0.02 0.00 79 1014.8
20260508054636 43 257 0.0 0.0 0.00 0.02 0.00 80 1014.7
20260508054139 43 257 0.0 0.0 0.00 0.02 0.00 81 1014.7
20260508053636 44 257 0.0 0.0 0.00 0.02 0.00 80 1014.8
20260508053139 44 257 0.0 0.0 0.00 0.02 0.00 80 1014.6
20260508052639 44 257 0.0 0.0 0.00 0.02 0.00 80 1014.6
20260508052139 44 256 0.0 0.0 0.00 0.02 0.00 79 1014.5
20260508051639 44 256 0.0 0.0 0.00 0.02 0.00 79 1014.4
20260508051135 44 256 0.0 0.0 0.00 0.02 0.00 78 1014.4
20260508050639 45 256 0.0 0.0 0.00 0.02 0.00 78 1014.3
20260508050136 45 256 0.0 0.0 0.00 0.02 0.00 78 1014.2
20260508045638 45 256 0.0 0.0 0.00 0.02 0.00 77 1014.1
20260508045135 45 253 0.0 0.0 0.00 0.02 0.00 78 1014.0
20260508044642 45 253 0.0 0.0 0.00 0.02 0.00 78 1014.0
20260508044136 45 253 0.0 0.0 0.00 0.02 0.00 78 1013.9
20260508043638 45 252 0.0 0.0 0.00 0.02 0.00 79 1014.0
20260508043136 44 252 0.0 0.0 0.00 0.02 0.00 79 1014.0
20260508042636 44 252 0.0 0.0 0.00 0.02 0.00 80 1014.1
20260508042136 44 250 0.0 0.0 0.00 0.02 0.00 81 1014.0
20260508041636 44 250 0.0 0.0 0.00 0.02 0.00 80 1014.0
20260508041145 44 250 0.0 0.0 0.00 0.02 0.00 80 1014.0
20260508040639 45 248 0.0 0.0 0.00 0.03 0.00 80 1014.0
20260508040136 45 248 0.0 0.0 0.00 0.03 0.00 80 1014.0
20260508035635 45 248 0.0 0.0 0.00 0.03 0.00 79 1013.9
20260508035136 45 247 0.0 0.0 0.00 0.03 0.00 79 1013.8
20260508034638 45 239 0.0 0.0 0.00 0.03 0.00 79 1013.7
20260508034139 46 239 0.0 0.0 0.00 0.03 0.00 80 1013.7
20260508033635 46 239 0.0 0.0 0.00 0.03 0.00 79 1013.8
20260508033140 46 239 0.0 0.0 0.00 0.03 0.00 79 1013.7
20260508032639 46 238 0.0 0.0 0.00 0.03 0.00 79 1013.8
20260508032142 46 238 0.0 0.0 0.00 0.03 0.00 78 1013.8
20260508031636 47 236 0.0 0.0 0.00 0.03 0.00 78 1013.7
20260508031136 47 236 0.0 0.0 0.00 0.03 0.00 79 1013.6
20260508030644 47 235 0.0 0.0 0.00 0.03 0.00 78 1013.5
20260508030136 47 233 0.0 0.0 0.00 0.03 0.00 77 1013.6
20260508025638 48 233 0.0 0.0 0.00 0.03 0.00 77 1013.5
20260508025136 48 233 0.0 0.0 0.00 0.04 0.00 77 1013.5
20260508024638 49 222 0.0 0.0 0.00 0.04 0.00 75 1013.5
20260508024136 49 221 0.0 0.0 0.00 0.04 0.00 76 1013.3
20260508023638 49 221 0.0 0.0 0.00 0.04 0.00 75 1013.2
20260508023139 49 211 0.0 0.0 0.00 0.04 0.00 75 1013.1
20260508022635 49 211 0.0 0.0 0.00 0.04 0.00 74 1012.9
20260508022136 49 208 0.0 0.0 0.00 0.04 0.00 74 1013.0
20260508021635 49 184 0.0 0.0 0.00 0.04 0.00 73 1012.9
20260508021139 49 229 0.0 0.0 0.00 0.04 0.00 73 1012.8
20260508020638 49 208 0.0 0.0 0.00 0.04 0.00 76 1012.7
20260508020136 49 209 0.0 0.0 0.00 0.05 0.00 76 1012.6
20260508015635 49 209 0.0 0.0 0.00 0.05 0.00 76 1012.4
20260508015139 49 208 0.0 0.0 0.00 0.07 0.00 76 1012.3
20260508014638 49 235 0.0 0.0 0.00 0.08 0.00 78 1012.2
20260508014136 49 237 0.0 0.0 0.00 0.09 0.00 77 1012.2
20260508013635 49 258 0.0 0.0 0.00 0.10 0.00 79 1012.1
20260508013136 49 257 0.0 0.0 0.00 0.11 0.00 79 1012.0
20260508012635 48 288 0.0 0.0 0.00 0.14 0.00 78 1012.1
20260508012136 48 290 0.0 0.0 0.00 0.14 0.00 80 1012.1
20260508011641 49 265 0.0 0.0 0.00 0.14 0.00 81 1012.0
20260508011136 49 265 0.0 0.0 0.00 0.16 0.00 80 1011.7
20260508010635 48 264 0.0 0.0 0.00 0.16 0.00 81 1011.7
20260508010135 49 262 0.0 0.0 0.00 0.18 0.00 81 1011.6
20260508005635 49 261 0.0 0.0 0.00 0.21 0.00 81 1011.5
20260508005138 49 261 0.0 0.0 0.00 0.23 0.00 81 1011.6
20260508004635 49 234 0.0 0.0 0.00 0.24 0.00 80 1011.6
20260508004135 50 232 0.0 0.0 0.00 0.24 0.00 79 1011.6
20260508003639 50 232 0.0 0.0 0.00 0.24 0.00 79 1011.6
20260508003135 51 221 0.0 0.0 0.00 0.24 0.00 78 1011.6
20260508002635 51 221 0.0 0.0 0.00 0.24 0.00 77 1011.6
20260508002136 51 221 0.0 0.0 0.00 0.24 0.00 76 1011.6
20260508001638 52 221 0.0 0.0 0.00 0.24 0.00 75 1011.5
20260508001135 53 221 0.0 0.0 0.00 0.24 0.00 75 1011.4
20260508000635 53 221 0.0 0.0 0.00 0.24 0.00 74 1011.4
20260508000142 53 220 0.0 0.0 0.00 0.24 0.00 73 1011.3
20260507235641 54 220 0.0 0.0 0.00 0.24 0.00 73 1011.3
20260507235138 54 220 0.0 0.0 0.00 0.24 0.00 70 1011.3
20260507234635 55 333 0.0 0.0 0.00 0.24 0.00 72 1011.2
20260507234135 55 334 0.0 0.0 0.00 0.24 0.00 71 1011.1
20260507233641 56 333 0.0 0.0 0.00 0.24 0.00 69 1011.0
20260507233136 56 332 0.0 0.0 0.00 0.24 0.00 67 1011.1
20260507232635 56 330 0.0 0.0 0.00 0.24 0.00 67 1010.9
20260507232135 56 330 0.0 0.0 0.00 0.24 0.00 65 1010.9
20260507231635 56 331 0.0 0.0 0.00 0.24 0.00 65 1010.9
20260507231135 57 331 0.0 0.0 0.00 0.24 0.00 63 1010.9
20260507230638 57 244 0.0 0.0 0.00 0.24 0.00 64 1010.8
20260507230138 57 171 0.0 0.0 0.00 0.24 0.00 62 1010.6
20260507225635 57 266 0.0 0.0 0.00 0.24 0.00 65 1010.5
20260507225141 58 263 0.0 0.0 0.00 0.24 0.00 65 1010.6
20260507224635 58 263 0.0 0.0 0.00 0.24 0.00 63 1010.5
20260507224138 58 256 0.0 0.0 0.00 0.24 0.00 61 1010.5
20260507223638 59 291 0.0 0.0 0.00 0.24 0.00 60 1010.6
20260507223136 59 290 0.0 0.0 0.00 0.24 0.00 60 1010.5
20260507222644 59 298 0.0 0.0 0.00 0.24 0.00 62 1010.5
20260507222138 59 175 0.0 0.0 0.00 0.24 0.00 63 1010.2
20260507221638 59 342 0.0 0.0 0.00 0.24 0.00 62 1010.3
20260507221138 58 342 0.0 0.0 0.00 0.24 0.00 63 1010.3
20260507220635 58 317 0.0 0.0 0.00 0.24 0.00 61 1010.1
20260507220135 58 77 0.0 0.0 0.00 0.24 0.00 65 1010.3
20260507215635 59 192 0.0 0.0 0.00 0.24 0.00 64 1010.2
20260507215138 59 74 0.0 0.0 0.00 0.24 0.00 63 1010.1
20260507214644 59 313 0.0 0.0 0.00 0.24 0.00 64 1010.0
20260507214138 59 215 0.0 0.0 0.00 0.24 0.00 67 1009.9
20260507213635 59 185 0.0 0.0 0.00 0.24 0.00 66 1009.9
20260507213141 59 223 0.0 0.0 0.00 0.24 0.00 65 1009.8
20260507212635 59 307 0.0 0.0 0.00 0.24 0.00 64 1009.7
20260507212135 59 146 0.0 0.0 0.00 0.24 0.00 62 1009.7
20260507211635 60 286 0.0 0.0 0.00 0.24 0.00 62 1009.6
20260507211142 60 249 0.0 0.0 0.00 0.24 0.00 62 1009.4
20260507210635 60 285 0.0 0.0 0.00 0.24 0.00 66 1009.4
20260507210135 60 338 0.0 0.0 0.00 0.24 0.00 64 1009.3
20260507205635 60 270 0.0 0.0 0.00 0.24 0.00 65 1009.5
20260507205138 60 333 0.0 0.0 0.00 0.24 0.00 66 1009.5
20260507204638 60 261 0.0 0.0 0.00 0.24 0.00 64 1009.3
20260507204135 60 291 0.0 0.0 0.00 0.24 0.00 66 1009.2
20260507203638 60 264 0.0 0.0 0.00 0.24 0.00 66 1009.1
20260507203144 60 306 0.0 0.0 0.00 0.24 0.00 66 1009.0
20260507202635 60 245 0.0 0.0 0.00 0.24 0.00 66 1009.2
20260507202141 60 248 0.0 0.0 0.00 0.24 0.00 66 1009.2
20260507201638 60 124 0.0 0.0 0.00 0.24 0.00 68 1009.1
20260507201138 60 261 0.0 0.0 0.00 0.24 0.00 67 1009.0
20260507200638 60 182 0.0 0.0 0.00 0.24 0.00 70 1009.0
20260507200138 59 311 0.0 0.0 0.00 0.24 0.00 71 1009.0
20260507195638 59 132 0.0 0.0 0.00 0.24 0.00 68 1009.2
20260507195138 59 247 0.0 0.0 0.00 0.24 0.00 69 1009.4
20260507194635 59 257 0.0 0.0 0.00 0.24 0.00 72 1009.3
20260507194135 59 235 0.0 0.0 0.00 0.24 0.00 73 1009.4
20260507193638 58 51 0.0 0.0 0.00 0.24 0.00 75 1009.6
20260507193138 57 257 0.0 0.0 0.00 0.24 0.00 81 1009.7
20260507192644 56 255 0.0 0.0 0.00 0.24 0.00 77 1009.7
20260507192144 56 289 0.0 0.0 0.00 0.24 0.00 78 1009.8
20260507191641 56 225 0.0 0.0 0.00 0.24 0.00 78 1010.0
20260507191144 56 300 0.0 0.0 0.00 0.24 0.00 79 1010.2
20260507190641 55 194 0.0 0.0 0.00 0.24 0.00 80 1010.1
20260507190135 55 209 0.0 0.0 0.00 0.24 0.00 82 1010.2
20260507185638 55 212 0.0 0.0 0.00 0.24 0.00 85 1010.2
20260507185138 54 214 0.0 0.0 0.00 0.24 0.00 82 1010.3
20260507184635 54 214 0.0 0.0 0.00 0.24 0.00 82 1010.3
20260507184135 54 213 0.0 0.0 0.00 0.24 0.00 82 1010.4
20260507183644 54 217 0.0 0.0 0.00 0.24 0.00 82 1010.4
20260507183141 54 222 0.0 0.0 0.00 0.24 0.00 82 1010.4
20260507182638 54 222 0.0 0.0 0.00 0.24 0.00 84 1010.5
20260507182135 54 221 0.0 0.0 0.00 0.24 0.00 84 1010.3
20260507181638 54 178 0.0 0.0 0.00 0.24 0.00 84 1010.5
20260507181138 54 177 0.0 0.0 0.00 0.24 0.00 85 1010.4
20260507180638 53 177 0.0 0.0 0.00 0.24 0.00 83 1010.5
20260507180138 53 201 0.0 0.0 0.00 0.24 0.00 85 1010.4
20260507175638 53 201 0.0 0.0 0.00 0.24 0.00 84 1010.4
20260507175135 53 201 0.0 0.0 0.00 0.24 0.00 85 1010.5
20260507174635 53 201 0.0 0.0 0.00 0.24 0.00 85 1010.4
20260507174135 53 201 0.0 0.0 0.00 0.24 0.00 86 1010.4
20260507173638 53 201 0.0 0.0 0.00 0.24 0.00 85 1010.5
20260507173138 53 202 0.0 0.0 0.00 0.24 0.00 85 1010.5
20260507172635 53 202 0.0 0.0 0.00 0.24 0.00 84 1010.3
20260507172138 53 201 0.0 0.0 0.00 0.24 0.00 85 1010.5
20260507171641 53 201 0.0 0.0 0.00 0.24 0.00 85 1010.6
20260507171135 53 227 0.0 0.0 0.00 0.24 0.00 85 1010.6
20260507170638 53 227 0.0 0.0 0.00 0.24 0.00 85 1010.7
20260507170141 53 264 0.0 0.0 0.00 0.24 0.00 85 1010.6
20260507165638 53 195 0.0 0.0 0.00 0.25 0.00 85 1010.6
20260507165138 53 194 0.0 0.0 0.00 0.25 0.00 85 1010.6
20260507164635 53 96 0.0 0.0 0.00 0.25 0.00 87 1010.7
20260507164138 53 271 0.0 0.0 0.00 0.26 0.00 86 1010.7
20260507163641 53 259 0.0 0.0 0.00 0.26 0.00 85 1010.7
20260507163138 53 288 0.0 0.0 0.00 0.26 0.00 87 1010.7
20260507122611 53 188 0.0 0.0 0.00 0.32 0.00 91 1011.5
20260507122111 53 188 0.0 0.0 0.00 0.32 0.00 91 1011.5
20260507121611 53 188 0.0 0.0 0.00 0.32 0.00 91 1011.4
20260507121111 53 188 0.0 0.0 0.00 0.32 0.00 91 1011.6
20260507120620 53 188 0.0 0.0 0.00 0.32 0.00 91 1011.4
20260507120117 53 188 0.0 0.0 0.00 0.32 0.00 91 1011.2
20260507115611 53 188 0.0 0.0 0.00 0.32 0.00 91 1011.2
20260507115111 53 188 0.0 0.0 0.00 0.32 0.00 92 1011.4
20260507114611 53 188 0.0 0.0 0.00 0.32 0.00 92 1011.3
20260507114117 53 188 0.0 0.0 0.00 0.32 0.00 93 1011.1
20260507113615 54 187 0.0 0.0 0.00 0.32 0.00 93 1011.3
20260507113111 54 187 0.0 0.0 0.00 0.32 0.00 93 1011.2
20260507112611 54 187 0.0 0.0 0.00 0.32 0.00 93 1011.3
20260507112114 54 187 0.0 0.0 0.00 0.32 0.00 93 1011.5
20260507111611 54 187 0.0 0.0 0.00 0.32 0.00 93 1011.1
20260507111111 54 187 0.0 0.0 0.00 0.32 0.00 93 1011.1
20260507110611 54 187 0.0 0.0 0.00 0.32 0.00 94 1010.7
20260507110114 54 187 0.0 0.0 0.00 0.32 0.00 94 1010.7
20260507105612 54 187 0.0 0.0 0.00 0.32 0.00 94 1010.8
20260507105111 54 187 0.0 0.0 0.00 0.32 0.00 93 1010.7
20260507104611 54 187 0.0 0.0 0.00 0.32 0.00 93 1010.8
20260507104111 54 187 0.0 0.0 0.00 0.32 0.00 93 1010.6
20260507103614 54 187 0.0 0.0 0.00 0.32 0.00 93 1010.6
20260507103111 54 187 0.0 0.0 0.00 0.32 0.00 93 1010.8
20260507102611 54 187 0.0 0.0 0.00 0.32 0.00 93 1010.4